Weather Roundup
Issued by NWS

Home | Current Version | Previous Version | Graphics & Text | Print | Product List | Glossary Off
Versions: 1 2 3 4 5 6 7 8 9 10 11 12 13 14 15 16 17 18 19 20 21 22 23 24 25 26 27 28 29 30 31 32 33 34 35 36 37 38 39 40 41 42 43 44 45 46 47 48 49 50

000
NZUS93 KARX 260359
HRRWXR

CURRENT HOURLY OBSERVATIONS ACROSS
MUCH OF THE UPPER MISSISSIPPI VALLEY
NATIONAL WEATHER SERVICE LA CROSSE WI
1100 PM CDT SAT MAR 25 2017


...SOUTHEAST MINNESOTA...


CITY           SKY/WX    TMP DP  RH WIND       PRES   REMARKS
ROCHESTER      CLOUDY    35  35 100 E14       29.99S WCI  26
ROCHESTER/MAYO CLOUDY    37  36  96 E9        30.00S WCI  30
WINONA         CLOUDY    36  34  93 E9        30.04S WCI  29
AUSTIN         CLOUDY    37  34  87 E10       29.97S WCI  30
ALBERT LEA     DRIZZLE   36  36 100 E8        29.96F WCI  29
DODGE CENTER   CLOUDY    36  36 100 E13       29.98F FOG     WCI  27
PRESTON        CLOUDY    35  33  95 E10G16    29.99S FOG     WCI  27
OWATONNA       CLOUDY    37  36  93 E9        29.99F WCI  31
FARIBAULT      LGT RAIN  37  37 100 NE7       30.00F WCI  32
$$

...ELSEWHERE IN MINNESOTA...


CITY           SKY/WX    TMP DP  RH WIND       PRES   REMARKS
MINNEAPOLIS    DRIZZLE   40  35  83 E9        30.04F WCI  34
INTNL FALLS    CLOUDY    32  25  75 SE8       30.08F WCI  25
DULUTH         FRZ DRZL  31  30  96 E12       30.09F FOG     WCI  22
RED WING       LGT RAIN  37  36  93 E7        30.02S WCI  32
REDWOOD FALLS  CLOUDY    39  33  79 E6        30.01F WCI  35
MANKATO        LGT RAIN  38  36  92 NE8       30.00F WCI  32
WORTHINGTON    CLOUDY    36  35  96 E12       29.97F FOG     WCI  28
FAIRMONT       CLOUDY    37  36  96 NE7       29.99S WCI  32
$$

...SOUTHWEST WISCONSIN...


CITY           SKY/WX    TMP DP  RH WIND       PRES   REMARKS
LA CROSSE      CLOUDY    38  35  89 E9G20     30.02F WCI  31
PRAIRIE DU CHI CLOUDY    39  38  97 E6        29.98F FOG     WCI  34
BOSCOBEL       CLOUDY    40  38  93 NE5       29.99F FOG
LONE ROCK      CLOUDY    39  37  93 E9        30.00F WCI  33
PLATTEVILLE    CLOUDY    40  40 100 NE13      29.95F WCI  32
FORT MC COY    CLOUDY    35  35  99 E9        30.05S FOG     WCI  28
MAUSTON-NEW LI CLOUDY    36  35  98 E5        30.04F FOG     WCI  32
VIROQUA        CLOUDY    36  36 100 E12G17    29.99F WCI  27
WIS DELLS      LGT RAIN  36  36  98 E12       30.02F WCI  28
$$

...ELSEWHERE IN WISCONSIN...


CITY           SKY/WX    TMP DP  RH WIND       PRES   REMARKS
MILWAUKEE      DRZL/FOG  39  37  92 NE12      30.04F VSB 1   WCI  32
MADISON        DRIZZLE   39  38  96 E10       30.00F WCI  32
GREEN BAY      CLOUDY    35  35 100 NE14      30.11F WCI  26
EAU CLAIRE     NOT AVBL
BLACK RVR FLS  CLOUDY    35  35 100 E7        30.05F FOG     WCI  29
MEDFORD        CLOUDY    32  31  95 E8G18     30.06F WCI  25
WAUSAU         CLOUDY    33  32  96 E12       30.07F WCI  24
WIS RAPIDS     CLOUDY    34  34 100 E9        30.08F WCI  27
MARSHFIELD     CLOUDY    33  31  92 E13       30.05S WCI  24
RICE LAKE      CLOUDY    37  35  90 CALM      30.08F
$$

...NORTHEAST IOWA...


CITY           SKY/WX    TMP DP  RH WIND       PRES   REMARKS
WATERLOO       CLOUDY    40  39  97 NE10      29.93F FOG     WCI  33
DUBUQUE        LGT RAIN  40  40 100 NE16      29.93F VSB 1   WCI  31
DECORAH        CLOUDY    37  37 100 E12       29.96F FOG     WCI  30
MASON CITY     CLOUDY    37  36  96 NE9       29.97S FOG     WCI  30
CHARLES CITY   CLOUDY    37  37 100 E16       29.95F FOG     WCI  28
OELWEIN        FOG       39  39 100 E16       29.93F VSB 3/4 WCI  30
$$

...ELSEWHERE IN IOWA...


CITY           SKY/WX    TMP DP  RH WIND       PRES   REMARKS
DES MOINES     CLOUDY    43  42  97 NE10      29.91S FOG
IOWA CITY      CLOUDY    45  43  93 NE10      29.89F
FORT DODGE     CLOUDY    37  36  93 NE6       29.95F WCI  33
MARSHALLTOWN   CLOUDY    40  40 100 NE10      29.90F FOG     WCI  33
CEDAR RAPIDS   LGT RAIN  42  42 100 NE12      29.87F FOG
$$

...NORTHERN ILLINOIS...


CITY           SKY/WX    TMP DP  RH WIND       PRES   REMARKS
CHICAGO-OHARE  LGT RAIN  45  43  93 NE9       29.96F FOG
CHICAGO-MIDWAY CLOUDY    49  48  97 NE6       29.96F FOG
MOLINE         CLOUDY    48  45  89 NE13      29.88F FOG
ROCKFORD       CLOUDY    44  42  93 E8        29.96F FOG
PEORIA         CLOUDY    59  58  96 E7        29.86F
$$

NOTE: "FAIR" INDICATES FEW OR NO CLOUDS BELOW 12,000 FEET WITH NO
SIGNIFICANT WEATHER AND/OR OBSTRUCTIONS TO VISIBILITY. WIND
SPEEDS ARE IN MILES-PER-HOUR.




USA.gov is the U.S. government's official web portal to all federal, state and local government web resources and services.